Location: Shepherdstown, WV
(39.4326°N, 77.8042°W)
Time: 10:31:14
(UTC-04:00)

Tiangong - Pass Details

Date: 02 July 2021
Orbit: 374 x 386 km, 41.5° (Epoch: 25 July)

Event Time Altitude Azimuth Distance (km) Brightness Sun altitude
Rises 22:08:09 0° 230° (SW) 2,217 5.0 -13.8°
Reaches altitude 10° 22:10:18 10° 221° (SW) 1,369 3.8 -14.1°
Maximum altitude 22:13:08 34° 154° (SSE) 632 1.6 -14.5°
Enters shadow 22:13:16 34° 148° (SSE) 635 1.6 -14.5°
